{"data":{"norad_id":67442,"epoch":"2026-05-25T01:00:53.938080Z","epoch_age_seconds":81612,"freshness":"FRESH","line1":"1 67442U 26007H   26145.04229095 -.00000086  00000+0  81753-4 0  9999","line2":"2 67442  50.0070 168.5766 0000845 285.1326  74.9453 13.29328224 17714","mean_motion":13.29328224,"eccentricity":8.45e-5,"inclination_deg":50.007,"raan_deg":168.5766,"arg_perigee_deg":285.1326,"mean_anomaly_deg":74.9453,"bstar":8.1753e-5,"rev_number":1771,"period_min":108.32539127673,"perigee_km":1148.6621078424,"apogee_km":1149.9342443872,"semimajor_km":7527.4351761148,"source":"CELESTRAK","updated_at":"2026-05-25T13:38:07.006745Z"}}